Miscellaneous Local Product
Issued by NWS Hastings, NE

Home | Current Version | Previous Version | Graphics & Text | Print | Product List | Glossary On
Versions: 1 2 3 4 5 6 7 8 9 10 11 12 13 14 15 16 17 18 19 20 21 22 23 24 25 26 27 28 29 30 31 32 33 34 35 36 37 38 39 40 41 42 43 44 45 46 47 48 49 50
000
AXUS43 KGID 010602
MISGRI

GID CWA HOURLY WEATHER ROUNDUP
NATIONAL WEATHER SERVICE HASTINGS NE
100 AM CDT MON SEP 01 2014

NOTE: "FAIR" INDICATES FEW OR NO CLOUDS BELOW 12,000 FEET WITH NO
SIGNIFICANT WEATHER AND/OR OBSTRUCTIONS TO VISIBILITY.

...SOUTH CENTRAL NEBRASKA...

CITY           SKY/WX    TMP DP  RH WIND       PRES   REMARKS
GRAND ISLAND   FAIR      62  59  90 S8        29.76F
HASTINGS       FAIR      64  59  83 W8        29.78R
KEARNEY        FAIR      63  57  82 SW7       29.79S
ORD            CLEAR     59  54  83 W8        29.75R
YORK           FAIR      59 N/A N/A W5        29.74F
AURORA         FAIR      61  61 100 SW7       29.77R
LEXINGTON      MOCLDY    60  56  88 W7        29.83R
HOLDREGE       FAIR      63  58  85 CALM      29.80R
HEBRON         FAIR      66  64  90 NW5       29.76R

...NEBRASKA PANHANDLE...

CITY           SKY/WX    TMP DP  RH WIND       PRES   REMARKS
CHADRON        CLEAR     51  50  96 SW7       29.91R
ALLIANCE       CLEAR     48  46  93 W7        29.94R
SCOTTSBLUFF    CLEAR     51  48  89 W6        29.96S
SIDNEY         PTCLDY    49  44  83 NW9       29.98R

...WESTERN AND NORTH CENTRAL NEBRASKA...

CITY           SKY/WX    TMP DP  RH WIND       PRES   REMARKS
VALENTINE      CLEAR     55  54  96 W6        29.83S
AINSWORTH      PTCLDY    55  54  94 NW6       29.82F
ONEILL         PTCLDY    62  61  97 NW9       29.76R
BROKEN BOW     CLEAR     59  54  83 W12       29.80S
IMPERIAL       PTCLDY    58  50  75 NW12      29.89R
NORTH PLATTE   CLEAR     54  51  90 NW8       29.86F
MCCOOK         PTCLDY    63  57  81 NW10      29.84S

...EASTERN NEBRASKA...

CITY           SKY/WX    TMP DP  RH WIND       PRES   REMARKS
NORFOLK        FAIR      62  60  93 NW3       29.67F
SO SIOUX CITY  FAIR      64  62  93 NW5       29.67R
TEKAMAH        FAIR      65  63  93 CALM      29.70R
ALBION         FAIR      61  57  88 CALM      29.69F
OMAHA EPPLEY   CLOUDY    70  66  87 S15       29.70R
OFFUTT AFB     FAIR      69  69  99 S10       29.70F
MILLARD        FAIR      69  67  92 SE8       29.69S
LINCOLN        FAIR      68  66  93 SW5       29.72F
NEBRASKA CITY  FAIR      66  66 100 S15G21    29.73F
BEATRICE       FAIR      68  66  91 S9        29.74R
FALLS CITY     LGT RAIN  68  65  90 S10G24    29.75F

...NORTHERN KANSAS...

CITY           SKY/WX    TMP DP  RH WIND       PRES   REMARKS
GOODLAND       CLEAR     59  54  83 N10       29.91R
HILL CITY      FAIR      63  61  93 SW5       29.81R
NORTON         CLEAR     61  54  77 W12       29.81R
PHILLIPSBURG   CLEAR     64  64 100 S3        29.79S
SMITH CENTER   CLEAR     64  63  94 CALM      29.80R
HAYS           FAIR      66  61  82 S7        29.80R
RUSSELL        FAIR      67  64  90 SE10      29.76F
CONCORDIA      LGT RAIN  69  67  93 S7        29.76R
SALINA         RAIN      65  62  90 S8        29.83R
TOPEKA         RAIN      68  67  96 SE12      29.83F



USA.gov is the U.S. government's official web portal to all federal, state and local government web resources and services.